Weather History for KMQB - May, 2014

Change the Weather History Date:

Sunday, May 4, 2014

  Actual Average (KBRL) Record (KBRL)
Temperature  
Mean Temperature 56 °F 60 °F  
Max Temperature 68 °F 71 °F 90 °F (1949)
Min Temperature 44 °F 49 °F 26 °F (1907)
Degree Days  
Heating Degree Days 9 6  
Month to date heating degree days 27  
Since 1 July heating degree days 5489  
Cooling Degree Days 0 1  
Month to date cooling degree days 4  
Year to date cooling degree days 24  
Growing Degree Days 6 (Base 50)    
Moisture  
Dew Point 40 °F    
Average Humidity 56    
Maximum Humidity 92    
Minimum Humidity 33    
Precipitation  
Precipitation 0.00 in 0.16 in 2.18 in (2012)
Month to date precipitation 0.66  
Year to date precipitation 10.07  
Sea Level Pressure  
Sea Level Pressure 29.99 in    
Wind  
Wind Speed 9 mph (ENE)    
Max Wind Speed 21 mph    
Max Gust Speed 29 mph    
Visibility 10 miles    
Events      
T = Trace of Precipitation, MM = Missing Value Source: NWS Daily Summary

Daily Weather History Graph

Daily Weather History Graph

Search for Another Location

Airport or City:

Trip Planner

Search our weather history database for the weather conditions in past years. The results will help you decide how hot, cold, wet, or windy it might be!

Date:

Astronomy

May. 04, 2014 Rise Set
Actual Time 5:57 AM CDT 8:01 PM CDT
Civil Twilight 5:28 AM CDT 8:31 PM CDT
Nautical Twilight 4:51 AM CDT 9:08 PM CDT
Astronomical Twilight 4:11 AM CDT 9:48 PM CDT
Moon 10:22 AM CDT (5/4) 12:06 AM CDT (5/4)
Length of Visible Light 15h 03m
Length of Day
14h 03m
Waxing Crescent, 28% of the Moon is Illuminated
May 4
Waxing Crescent
May 6
First Quarter
May 14
Full
May 21
Last Quarter
May 28
New

Hourly Weather History & Observations

Time (CDT) Temp. Windchill Dew Point Humidity Pressure Visibility Wind Dir Wind Speed Gust Speed Precip Events Conditions
12:15 AM 52.7 °F - 42.8 °F 69% 29.97 in 10.0 mi NW 6.9 mph - N/A   Clear
12:35 AM 51.3 °F - 43.2 °F 74% 29.97 in 10.0 mi WNW 6.9 mph - N/A   Clear
12:55 AM 50.9 °F - 43.5 °F 76% 29.97 in 10.0 mi WNW 5.8 mph - N/A   Clear
1:15 AM 50.9 °F - 43.7 °F 76% 29.97 in 10.0 mi WNW 4.6 mph - N/A   Clear
1:35 AM 49.1 °F - 43.3 °F 81% 29.97 in 10.0 mi West 3.5 mph - N/A   Clear
1:55 AM 49.1 °F - 43.5 °F 81% 29.97 in 10.0 mi WNW 4.6 mph - N/A   Clear
2:15 AM 48.9 °F - 43.3 °F 81% 29.97 in 10.0 mi NW 5.8 mph - N/A   Clear
2:35 AM 48.2 °F - 43.0 °F 82% 29.97 in 10.0 mi NW 3.5 mph - N/A   Clear
2:55 AM 46.6 °F - 42.6 °F 86% 29.96 in 10.0 mi Calm Calm - N/A   Clear
3:15 AM 48.7 °F - 43.5 °F 82% 29.96 in 10.0 mi North 4.6 mph - N/A   Clear
3:35 AM 45.5 °F - 41.7 °F 87% 29.96 in 10.0 mi Calm Calm - N/A   Clear
3:55 AM 46.6 °F - 43.0 °F 87% 29.96 in 10.0 mi Calm Calm - N/A   Clear
4:15 AM 46.6 °F - 43.3 °F 88% 29.97 in 10.0 mi North 3.5 mph - N/A   Clear
4:35 AM 45.5 °F 43.2 °F 42.6 °F 90% 29.98 in 10.0 mi NNW 4.6 mph - N/A   Clear
4:55 AM 45.5 °F 42.5 °F 43.2 °F 92% 29.99 in 10.0 mi North 5.8 mph - N/A   Clear
5:15 AM 45.1 °F 42.0 °F 42.8 °F 91% 30.00 in 10.0 mi North 5.8 mph - N/A   Clear
5:35 AM 44.4 °F 40.5 °F 42.1 °F 91% 30.00 in 10.0 mi North 6.9 mph - N/A   Clear
5:55 AM 45.0 °F 43.5 °F 42.6 °F 91% 30.01 in 10.0 mi North 3.5 mph - N/A   Clear
6:15 AM 44.8 °F 43.3 °F 42.4 °F 91% 30.01 in 10.0 mi North 3.5 mph - N/A   Clear
6:35 AM 45.0 °F - 42.3 °F 90% 30.02 in 10.0 mi Calm Calm - N/A   Clear
6:55 AM 46.0 °F - 43.0 °F 89% 30.03 in 10.0 mi Calm Calm - N/A   Clear
7:15 AM 48.2 °F - 44.8 °F 88% 30.03 in 10.0 mi NE 3.5 mph - N/A   Clear
7:35 AM 50.7 °F - 45.5 °F 82% 30.05 in 10.0 mi NNE 4.6 mph - N/A   Clear
7:55 AM 53.6 °F - 42.8 °F 67% 30.05 in 10.0 mi NNE 9.2 mph - N/A   Clear
8:15 AM 53.6 °F - 40.3 °F 61% 30.08 in 10.0 mi NNE 10.4 mph - N/A   Clear
8:35 AM 53.6 °F - 41.0 °F 62% 30.05 in 10.0 mi NE 10.4 mph - N/A   Clear
8:55 AM 55.2 °F - 40.3 °F 57% 30.06 in 10.0 mi NE 12.7 mph - N/A   Clear
9:15 AM 56.8 °F - 39.4 °F 52% 30.06 in 10.0 mi ENE 10.4 mph - N/A   Clear
9:35 AM 57.9 °F - 38.5 °F 48% 30.05 in 10.0 mi ENE 15.0 mph - N/A   Clear
9:55 AM 58.1 °F - 37.2 °F 46% 30.05 in 10.0 mi NE 15.0 mph - N/A   Clear
10:15 AM 59.2 °F - 39.6 °F 48% 30.06 in 10.0 mi NE 10.4 mph - N/A   Clear
10:35 AM 59.9 °F - 38.7 °F 45% 30.06 in 10.0 mi ENE 12.7 mph - N/A   Clear
10:55 AM 60.6 °F - 38.1 °F 43% 30.06 in 10.0 mi ENE 12.7 mph - N/A   Clear
11:15 AM 61.5 °F - 38.7 °F 43% 30.07 in 10.0 mi NE 13.8 mph 18.4 mph N/A   Clear
11:35 AM 61.7 °F - 37.6 °F 41% 30.07 in 10.0 mi ENE 15.0 mph 19.6 mph N/A   Clear
11:55 AM 62.2 °F - 38.7 °F 42% 30.06 in 10.0 mi NE 12.7 mph 21.9 mph N/A   Clear
12:15 PM 63.0 °F - 37.9 °F 40% 30.04 in 10.0 mi ENE 15.0 mph 19.6 mph N/A   Clear
12:35 PM 63.3 °F - 37.2 °F 38% 30.03 in 10.0 mi East 12.7 mph - N/A   Clear
12:55 PM 63.7 °F - 36.1 °F 36% 30.03 in 10.0 mi East 11.5 mph 20.7 mph N/A   Clear
1:15 PM 64.9 °F - 38.1 °F 37% 30.03 in 10.0 mi East 18.4 mph 25.3 mph N/A   Clear
1:35 PM 63.1 °F - 37.8 °F 39% 30.02 in 10.0 mi ENE 19.6 mph 23.0 mph N/A   Clear
1:55 PM 64.8 °F - 37.8 °F 37% 30.02 in 10.0 mi East 17.3 mph 21.9 mph N/A   Clear
2:15 PM 65.1 °F - 37.8 °F 36% 30.00 in 10.0 mi East 12.7 mph 19.6 mph N/A   Clear
2:35 PM 65.5 °F - 38.3 °F 37% 30.00 in 10.0 mi East 12.7 mph - N/A   Clear
2:55 PM 65.3 °F - 37.4 °F 36% 30.00 in 10.0 mi ESE 12.7 mph - N/A   Clear
3:15 PM 66.4 °F - 37.8 °F 35% 29.99 in 10.0 mi East 10.4 mph - N/A   Clear
3:35 PM 68.0 °F - 38.7 °F 34% 29.99 in 10.0 mi ESE 11.5 mph 16.1 mph N/A   Clear
3:55 PM 67.6 °F - 37.6 °F 33% 29.98 in 10.0 mi ESE 10.4 mph - N/A   Clear
4:15 PM 68.0 °F - 38.7 °F 34% 29.98 in 10.0 mi SE 9.2 mph 16.1 mph N/A   Clear
4:35 PM 67.6 °F - 39.2 °F 35% 29.98 in 10.0 mi SE 8.1 mph - N/A   Clear
4:55 PM 68.2 °F - 38.8 °F 34% 29.97 in 10.0 mi SE 8.1 mph 16.1 mph N/A   Clear
5:15 PM 68.7 °F - 38.7 °F 33% 29.96 in 10.0 mi East 13.8 mph - N/A   Clear
5:35 PM 68.4 °F - 39.0 °F 34% 29.97 in 10.0 mi East 12.7 mph - N/A   Clear
5:55 PM 68.0 °F - 39.9 °F 36% 29.96 in 10.0 mi East 11.5 mph - N/A   Clear
6:15 PM 67.6 °F - 39.4 °F 36% 29.94 in 10.0 mi East 15.0 mph 20.7 mph N/A   Clear
6:35 PM 66.4 °F - 39.7 °F 38% 29.93 in 10.0 mi East 17.3 mph - N/A   Clear
6:55 PM 65.7 °F - 40.1 °F 39% 29.94 in 10.0 mi East 15.0 mph - N/A   Clear
7:15 PM 64.9 °F - 40.6 °F 41% 29.93 in 10.0 mi East 20.7 mph - N/A   Clear
7:35 PM 61.5 °F - 39.0 °F 43% 29.94 in 10.0 mi East 20.7 mph 26.5 mph N/A   Clear
7:55 PM 60.1 °F - 37.6 °F 43% 29.93 in 10.0 mi East 20.7 mph - N/A   Clear
8:15 PM 59.4 °F - 37.6 °F 44% 29.96 in 10.0 mi ENE 13.8 mph - N/A   Clear
8:35 PM 59.0 °F - 38.5 °F 47% 29.96 in 10.0 mi ENE 15.0 mph 19.6 mph N/A   Clear
8:55 PM 58.3 °F - 38.7 °F 48% 29.97 in 10.0 mi ENE 12.7 mph - N/A   Clear
9:15 PM 58.1 °F - 37.4 °F 46% 29.95 in 10.0 mi East 16.1 mph - N/A   Clear
9:35 PM 57.7 °F - 37.4 °F 47% 29.94 in 10.0 mi East 13.8 mph - N/A   Clear
9:55 PM 56.7 °F - 37.6 °F 49% 29.96 in 10.0 mi East 15.0 mph - N/A   Clear
10:15 PM 56.3 °F - 38.3 °F 51% 29.94 in 10.0 mi East 12.7 mph - N/A   Clear
10:35 PM 56.5 °F - 38.3 °F 51% 29.96 in 10.0 mi East 19.6 mph 25.3 mph N/A   Clear
10:55 PM 55.4 °F - 31.3 °F 40% 29.97 in 10.0 mi ESE 20.7 mph 28.8 mph N/A   Clear
11:15 PM 54.9 °F - 31.1 °F 40% 29.97 in 10.0 mi East 17.3 mph - N/A   Clear
11:35 PM 53.6 °F - 31.5 °F 43% 29.97 in 10.0 mi East 17.3 mph - N/A   Clear
11:55 PM 52.2 °F - 33.3 °F 49% 29.96 in 10.0 mi East 15.0 mph - N/A   Clear